www.pogodaiklimat.ru

Погода и климат >> Архив погоды >> Норвегия >> Ona II


ПОГОДА в Ona II

  • Прогноз погоды в Ona II
  • Монитор погоды в Ona II
  • Климат города

АРХИВ ПОГОДЫ в Ona II

Время (UTC), дата Ветер
(напр.,м/с)
 
Видим.   Явления Облачность Т
(С)
Тd
(С)
f
(%)
Тe
(С)
Тes
(С)
Комфортность P
(гПа)
Po
(гПа)
Тmin
(С)
Tmax
(С)
R
(мм)
R24
(мм)
S
(см)
10 12.07 С 3
{5}
н/о н/о +12.8 +9.1 78 +11 +11 1021.0 1019.2
11 12.07 СВ 3
{4}
н/о н/о +13.2 +8.9 75 +12 +12 1020.8 1019.0
12 12.07 СВ 3
{5}
н/о н/о +13.1 +9.2 77 +12 +12 1020.8 1019.0
14 12.07 СВ 3
{5}
н/о н/о +13.3 +9.4 77 +12 +12 1020.5 1018.7
13 12.07 СВ 3
{5}
н/о н/о +13.0 +8.7 75 +12 +12 1020.6 1018.8
15 12.07 С 3
{5}
н/о н/о +13.3 +9.4 77 +12 +12 1020.4 1018.6
16 12.07 СВ 3
{5}
н/о н/о +12.9 +9.4 79 +12 +12 1020.4 1018.6
17 12.07 СВ 5
{6}
н/о н/о +12.6 +9.6 82 +10 +10 1020.1 1018.3
18 12.07 СВ 5
{7}
н/о н/о +12.3 +9.7 84 +10 +10 1020.1 1018.3 +11.9 +13.4
20 12.07 СВ 6
{9}
н/о н/о +11.6 +9.7 88 +9 +9 1020.1 1018.3
19 12.07 СВ 7
{9}
н/о н/о +12.0 +9.6 85 +9 +9 1020.0 1018.2
21 12.07 СВ 5
{8}
н/о н/о +11.6 +9.9 89 +9 +9 1020.0 1018.2
22 12.07 СВ 7
{9}
н/о н/о +11.6 +9.9 89 +8 +8 1019.8 1018.0
23 12.07 СВ 6
{10}
н/о н/о +11.3 +10.1 92 +8 +8 1019.7 1017.9
00 13.07 СВ 6
{10}
н/о н/о +11.3 +9.9 91 +8 +8 1019.4 1017.6
02 13.07 СВ 6
{9}
н/о н/о +11.5 +9.4 87 +9 +9 1019.2 1017.4
01 13.07 СВ 6
{9}
н/о н/о +11.7 +9.8 88 +9 +9 1019.4 1017.6
03 13.07 СВ 6
{8}
н/о н/о +11.2 +9.5 89 +8 +8 1019.3 1017.5
04 13.07 СВ 6
{8}
н/о н/о +11.0 +9.6 91 +8 +8 1019.2 1017.4
05 13.07 СВ 5
{8}
н/о н/о +11.0 +9.3 89 +8 +8 1019.3 1017.5
06 13.07 СВ 4
{9}
н/о н/о +11.0 +9.3 89 +9 +9 1019.3 1017.5 +10.9 +12.4
08 13.07 СВ 5
{7}
н/о н/о +11.4 +9.0 85 +9 +9 1019.3 1017.5
07 13.07 СВ 5
{7}
н/о н/о +11.4 +8.8 84 +9 +9 1019.3 1017.5
09 13.07 СВ 4
{6}
н/о н/о +11.8 +9.0 83 +10 +10 1019.2 1017.4
10 13.07 СВ 4
{6}
н/о н/о +11.9 +8.9 82 +10 +10 1019.1 1017.3
11 13.07 С 4
{6}
н/о н/о +12.3 +9.1 81 +10 +10 1019.4 1017.6
12 13.07 С 3
{7}
н/о н/о +12.6 +8.9 78 +11 +11 1019.5 1017.7
14 13.07 С 2
{3}
н/о н/о +13.0 +8.7 75 +12 +12 1019.1 1017.3
13 13.07 С 2
{3}
н/о н/о +12.8 +8.5 75 +12 +12 1019.3 1017.5
15 13.07 С 3
{4}
н/о н/о +12.8 +8.9 77 +11 +11 1019.2 1017.4
16 13.07 С 3
{5}
н/о н/о +12.5 +8.6 77 +11 +11 1019.1 1017.3
17 13.07 С 2
{4}
н/о н/о +12.6 +8.9 78 +12 +12 1018.9 1017.1
18 13.07 С 2
{5}
н/о н/о +12.3 +9.1 81 +11 +11 1018.9 1017.1 +10.9 +13.2
20 13.07 СЗ 2
{3}
н/о н/о +11.9 +9.1 83 +11 +11 1019.0 1017.2
19 13.07 СЗ 2
{3}
н/о н/о +12.1 +9.3 83 +11 +11 1019.0 1017.2
21 13.07
{2}
н/о н/о +12.0 +9.2 83 1018.9 1017.1
22 13.07 С 1
{3}
н/о н/о +11.7 +9.4 86 +12 +12 1018.7 1016.9
23 13.07 С 1
{1}
н/о н/о +11.6 +9.3 86 +11 +11 1018.6 1016.8
00 14.07 штиль 0
{3}
н/о н/о +11.6 +9.3 86 +11 +11 1018.3 1016.5
02 14.07 З 2
{4}
н/о н/о +12.0 +8.3 78 +11 +11 1018.2 1016.4
01 14.07 З 2
{4}
н/о н/о +12.0 +8.7 80 +11 +11 1018.2 1016.4
03 14.07 З 2
{3}
н/о н/о +11.8 +8.3 79 +11 +11 1018.0 1016.2
04 14.07 ЮЗ 2 н/о н/о +11.8 +8.5 80 +11 +11 1017.7 1015.9
05 14.07 ЮЗ 4
{4}
н/о н/о +11.6 +8.3 80 +9 +9 1017.6 1015.8
06 14.07 ЮЗ 2
{6}
н/о н/о +11.7 +8.4 80 +11 +11 1017.5 1015.7 +11.4 +12.4
08 14.07 ЮЗ 3
{5}
н/о н/о +12.0 +8.9 81 +10 +10 1017.4 1015.6
07 14.07 З 3
{6}
н/о н/о +11.9 +8.6 80 +10 +10 1017.4 1015.6
09 14.07 ЮЗ 3
{5}
н/о н/о +12.3 +9.1 81 +11 +11 1017.1 1015.3
10 14.07 З 4
{5}
н/о н/о +12.3 +9.0 80 +10 +10 1017.0 1015.2
11 14.07 ЮЗ 4
{5}
н/о н/о +12.8 +8.3 74 +11 +11 1016.7 1014.9
12 14.07 З 3
{6}
н/о н/о +13.1 +8.8 75 +12 +12 1016.3 1014.5
14 14.07 З 4
{7}
н/о н/о +13.5 +9.8 78 +12 +12 1015.9 1014.2
13 14.07 З 5
{6}
н/о н/о +14.1 +9.7 75 +12 +12 1016.0 1014.3
15 14.07 ЮЗ 3
{6}
н/о н/о +13.5 +9.8 78 +12 +12 1015.5 1013.8
16 14.07 ЮЗ 3
{4}
н/о н/о +13.4 +10.0 80 +12 +12 1015.5 1013.8
17 14.07 ЮЗ 5
{6}
н/о н/о +13.2 +10.4 83 +11 +11 1015.1 1013.4
18 14.07 Ю 3
{7}
н/о н/о +13.0 +10.4 84 +12 +12 1014.6 1012.9 +11.7 +14.1
20 14.07 СЗ 2
{4}
н/о н/о +13.1 +10.6 85 +12 +12 1014.2 1012.5
19 14.07 СЗ 2
{3}
н/о н/о +13.2 +10.4 83 +12 +12 1014.2 1012.5
21 14.07 штиль 0
{3}
н/о н/о +13.0 +10.7 86 +13 +13 1013.9 1012.2
22 14.07 штиль 0
{1}
н/о н/о +12.7 +10.6 87 +12 +12 1013.9 1012.2
23 14.07 З 2
{2}
н/о н/о +13.0 +11.1 88 +12 +12 1014.0 1012.3
00 15.07 штиль 0
{4}
н/о н/о +13.0 +10.9 87 +13 +13 1014.1 1012.4
02 15.07 ЮВ 2
{3}
н/о н/о +12.6 +11.0 90 +12 +12 1014.1 1012.4
01 15.07 ЮВ 2
{3}
н/о н/о +12.7 +11.1 90 +12 +12 1014.2 1012.5
03 15.07 ЮВ 3
{4}
н/о н/о +12.8 +11.2 90 +11 +11 1013.9 1012.2
04 15.07 ЮВ 3 н/о н/о +13.1 +11.3 89 +12 +12 1013.7 1012.0
05 15.07 ЮЗ 3
{3}
н/о н/о +13.6 +11.5 87 +12 +12 1013.9 1012.2
06 15.07 ЮЗ 2
{4}
н/о н/о +14.5 +11.5 82 +14 +14 1013.9 1012.2 +12.6 +14.5
08 15.07 штиль 0
{2}
н/о н/о +15.9 +11.1 73 +16 +16 1014.5 1012.8
07 15.07 ЮЗ 1
{3}
н/о н/о +14.9 +11.5 80 +15 +15 1014.2 1012.5
09 15.07 штиль 0
{2}
н/о н/о +15.6 +12.0 79 +15 +15 1015.1 1013.4
10 15.07 ЮВ 2
{3}
н/о н/о +15.6 +12.2 80 +16 +16 1015.4 1013.7
11 15.07 В 1
{3}
н/о н/о +16.4 +12.2 76 +17 +17 1015.6 1013.9
12 15.07 СЗ 1
{3}
н/о н/о +17.3 +11.8 70 +18 +18 1015.7 1014.0
14 15.07 З 2
{3}
н/о н/о +16.6 +11.5 72 +17 +17 1016.0 1014.3
13 15.07 СЗ 1
{2}
н/о н/о +16.7 +11.4 71 +18 +18 1016.0 1014.3
15 15.07 З 2
{3}
н/о н/о +16.6 +11.8 73 +17 +17 1015.9 1014.2
16 15.07 штиль 0
{3}
н/о н/о +17.5 +11.3 67 +18 +18 1015.8 1014.1
17 15.07 В 4
{5}
н/о н/о +15.5 +11.9 79 +15 +15 1015.6 1013.9
18 15.07 В 5
{7}
н/о н/о +15.5 +11.9 79 +14 +14 1015.7 1014.0 +14.3 +18.1
20 15.07 В 6
{8}
н/о н/о +15.6 +11.2 75 +14 +14 1015.3 1013.6
19 15.07 В 4
{7}
н/о н/о +15.6 +11.6 77 +15 +15 1015.5 1013.8
21 15.07 В 7
{9}
н/о н/о +15.3 +11.3 77 +14 +14 1015.1 1013.4
22 15.07 В 5
{8}
н/о н/о +14.7 +12.0 84 +13 +13 1015.2 1013.5
23 15.07 В 5
{6}
н/о н/о +14.6 +11.6 82 +13 +13 1015.0 1013.3
00 16.07 В 5
{9}
н/о н/о +14.8 +11.8 82 +13 +13 1014.7 1013.0
02 16.07 штиль 0
{4}
н/о н/о +14.3 +12.0 86 +14 +14 1014.6 1012.9
01 16.07 В 3
{5}
н/о н/о +14.4 +11.9 85 +13 +13 1014.6 1012.9
03 16.07 З 3
{3}
н/о н/о +15.5 +12.1 80 +15 +15 1014.4 1012.7
04 16.07 ЮЗ 4 н/о н/о +14.3 +12.0 86 +13 +13 1014.3 1012.6
05 16.07 ЮЗ 6
{6}
н/о н/о +14.0 +11.9 87 +12 +12 1014.2 1012.5
06 16.07 З 4
{6}
н/о н/о +14.1 +12.0 87 +13 +13 1014.2 1012.5 +13.8 +16.2
08 16.07 З 2
{4}
н/о н/о +15.9 +12.1 78 +16 +16 1014.5 1012.8
07 16.07 З 3
{5}
н/о н/о +15.1 +11.9 81 +14 +14 1014.2 1012.5
09 16.07 СЗ 1
{2}
н/о н/о +17.9 +12.1 69 +19 +19 1014.8 1013.1
10 16.07 СВ 2
{2}
н/о н/о +18.4 +11.5 64 +19 +19 1014.8 1013.1
11 16.07 В 3
{4}
н/о н/о +18.3 +12.3 68 +19 +19 1014.8 1013.1
12 16.07 В 4
{5}
н/о н/о +18.9 +12.0 64 +20 +20 1014.7 1013.0
14 16.07 СВ 4
{6}
н/о н/о +18.9 +11.7 63 +20 +20 1014.9 1013.2
13 16.07 СВ 4
{6}
н/о н/о +19.3 +11.6 61 +20 +20 1014.7 1013.0
15 16.07 СВ 3
{5}
н/о н/о +18.6 +12.1 66 +19 +19 1015.1 1013.4
16 16.07 СВ 4
{5}
н/о н/о +18.6 +11.9 65 +19 +19 1015.0 1013.3
17 16.07 СВ 3
{5}
н/о н/о +18.1 +12.6 70 +18 +18 1015.3 1013.6
18 16.07 В 5
{6}
н/о н/о +16.8 +11.7 72 +16 +16 1015.3 1013.6 +14.1 +19.6
20 16.07 СВ 6
{7}
н/о н/о +17.8 +11.1 65 +17 +17 1015.6 1013.9
19 16.07 В 5
{7}
н/о н/о +16.8 +11.5 71 +16 +16 1015.4 1013.7
21 16.07 В 5 н/о н/о +15.7 +11.9 78 +15 +15 1015.7 1014.0
22 16.07 В 5 н/о н/о +18.1 +11.4 65 +18 +18 1015.9 1014.2
23 16.07 В 4 н/о н/о +17.7 +11.7 68 +17 +17 1016.0 1014.3
00 17.07 В 4
{8}
н/о н/о +17.5 +12.0 70 +17 +17 1015.8 1014.1
02 17.07 СВ 2
{3}
н/о н/о +16.0 +12.2 78 +16 +16 1015.5 1013.8
01 17.07 В 2
{5}
н/о н/о +17.0 +11.9 72 +17 +17 1015.6 1013.9
03 17.07 В 3
{5}
н/о н/о +17.1 +11.6 70 +17 +17 1015.3 1013.6
04 17.07 В 2
{4}
н/о н/о +18.2 +11.5 65 +19 +19 1014.8 1013.1
05 17.07 В 4
{5}
н/о н/о +17.6 +11.9 69 +17 +17 1014.6 1012.9
06 17.07 В 4
{5}
н/о н/о +17.0 +12.1 73 +17 +17 1014.4 1012.7 +15.4 +18.6
08 17.07 штиль 0
{4}
н/о н/о +19.4 +13.6 69 +21 +21 комфорт 1014.6 1012.9
07 17.07 В 4
{5}
н/о н/о +17.4 +12.3 72 +17 +17 1014.4 1012.7
09 17.07 СЗ 1
{2}
н/о н/о +19.6 +12.1 62 +22 +22 комфорт 1014.6 1012.9
10 17.07 З 2
{3}
н/о н/о +19.0 +11.8 63 +20 +20 1014.5 1012.8
11 17.07 С 1
{3}
н/о н/о +18.1 +13.0 72 +19 +19 1014.6 1012.9
12 17.07 СВ 2
{5}
н/о н/о +17.6 +12.7 73 +18 +18 1014.7 1013.0
14 17.07 СЗ 1
{2}
н/о н/о +19.4 +12.4 64 +22 +22 комфорт 1014.6 1012.9
13 17.07 штиль 0
{2}
н/о н/о +19.6 +13.1 66 +21 +21 комфорт 1014.6 1012.9
15 17.07 Ю 9
{16}
н/о н/о +16.7 +12.9 78 +15 +15 1015.8 1014.1
16 17.07 В 4
{7}
н/о н/о +17.3 +13.8 80 +17 +17 1015.1 1013.4
17 17.07 В 3
{5}
н/о н/о +19.9 +13.6 67 +22 +22 комфорт 1014.0 1012.3
18 17.07 В 7
{16}
н/о н/о +17.8 +14.5 81 +17 +17 1013.6 1011.9 +16.5 +20.7
20 17.07 В 3
{6}
н/о н/о +18.1 +13.8 76 +18 +18 1013.7 1012.0
21 17.07 В 3
{5}
н/о н/о +18.3 +13.6 74 +19 +19 1013.3 1011.6
22 17.07
{7}
н/о н/о +16.5 +13.6 83 1013.3 1011.6
23 17.07 С 2
{6}
н/о н/о +16.7 +13.6 82 +17 +17 1013.1 1011.4
00 18.07 СВ 3
{8}
н/о н/о +15.7 +13.2 85 +15 +15 1012.8 1011.1
01 18.07 ЮВ 3
{6}
н/о н/о +15.8 +13.5 86 +15 +15 1013.3 1011.6
02 18.07 ЮЗ 8
{9}
н/о н/о +16.0 +13.1 83 +14 +14 1012.9 1011.2
03 18.07 В 4
{7}
н/о н/о +16.0 +12.9 82 +15 +15 1012.0 1010.3
04 18.07 В 5
{7}
н/о н/о +16.3 +13.4 83 +15 +15 1011.5 1009.8
05 18.07 ЮВ 3
{5}
н/о н/о +16.0 +12.8 81 +16 +16 1011.7 1010.0
06 18.07 Ю 9
{12}
н/о н/о +16.0 +13.5 85 +14 +14 1013.7 1012.0 +14.9 +19.4
07 18.07 ЮВ 4
{10}
н/о н/о +15.8 +13.8 88 +15 +15 1012.7 1011.0
08 18.07 ЮВ 3
{5}
н/о н/о +14.8 +13.2 90 +14 +14 1013.1 1011.4
09 18.07 В 6
{8}
н/о н/о +16.3 +14.0 86 +15 +15 1011.8 1010.1
10 18.07 В 4
{10}
н/о н/о +16.9 +13.6 81 +16 +16 1012.3 1010.6
11 18.07 З 7
{9}
н/о н/о +15.7 +13.2 85 +14 +14 1012.5 1010.8
12 18.07 З 7
{10}
н/о н/о +15.8 +13.3 85 +14 +14 1013.7 1012.0
13 18.07 З 5
{14}
н/о н/о +14.6 +12.8 89 +13 +13 1014.2 1012.5
14 18.07 ЮЗ 3
{6}
н/о н/о +13.9 +12.5 91 +13 +13 1014.7 1013.0
15 18.07 ЮЗ 4
{6}
н/о н/о +15.3 +12.3 82 +14 +14 1015.2 1013.5
16 18.07 ЮЗ 3
{6}
н/о н/о +14.9 +13.1 89 +14 +14 1015.6 1013.9
17 18.07 З 5
{7}
н/о н/о +14.8 +13.0 89 +13 +13 1015.8 1014.1
18 18.07 З 6
{14}
н/о н/о +14.0 +12.2 89 +12 +12 1016.3 1014.6 +13.8 +18.0
19 18.07 З 7
{9}
н/о н/о +13.7 +11.6 87 +11 +11 1016.5 1014.8
20 18.07 З 5
{9}
н/о н/о +13.6 +11.1 85 +12 +12 1017.2 1015.5
21 18.07 З 4
{6}
н/о н/о +13.7 +10.3 80 +12 +12 1017.6 1015.9
22 18.07 З 4
{5}
н/о н/о +13.7 +10.3 80 +12 +12 1017.8 1016.1
23 18.07 ЮЗ 2
{5}
н/о н/о +13.7 +11.1 84 +13 +13 1018.4 1016.6
00 19.07 ЮЗ 3
{9}
н/о н/о +13.2 +10.7 85 +12 +12 1018.6 1016.8
01 19.07 Ю 3
{4}
н/о н/о +13.1 +10.6 85 +12 +12 1018.6 1016.8
02 19.07 Ю 3
{4}
н/о н/о +12.6 +10.5 87 +11 +11 1018.8 1017.0
03 19.07 Ю 2
{4}
н/о н/о +12.9 +10.4 85 +12 +12 1018.9 1017.1
04 19.07 Ю 3
{4}
н/о н/о +13.5 +9.8 78 +12 +12 1019.0 1017.2
05 19.07 Ю 3
{5}
н/о н/о +13.8 +9.5 75 +13 +13 1019.3 1017.5
06 19.07 ЮЗ 4
{5}
н/о н/о +14.0 +10.2 78 +13 +13 1019.4 1017.6 +12.5 +14.0
07 19.07 ЮЗ 4
{5}
н/о н/о +14.2 +10.2 77 +13 +13 1019.5 1017.8
08 19.07 ЮЗ 3
{4}
н/о н/о +14.2 +10.6 79 +13 +13 1019.7 1018.0

 

Местоположение метеостанции Ona II (Норвегия): широта 62.86 долгота 6.54 высота над уровнем моря 13 м.

В архиве по умолчанию представлена погода в Ona II за последнюю неделю. Архивные данные за месяц целиком и за предыдущие месяцы, начиная с января 2011 года, Вы можете получить, выбрав интересующий диапазон дат из раскрывающегося списка и нажав кнопку "Ввод!".


*Определитесь, кто Вы:
робот инопланетянин человек

Внимание! Время в таблицах - всемирное. Для получения местного времени необходимо прибавить поправку, которая в Ona II равна 1 ч.

Смотрите также архив погоды в соседних городах и на ближайших метеорологических станциях:

Погода в Rekdal (Норвегия) (26 км)
Погода в Molde Lufthavn (Норвегия) (39 км)
Погода в Alesund Lufthavn (Норвегия) (39 км)
Погода в Lebergsfjellet (Норвегия) (41 км)
Погода в Alesund IV (Норвегия) (47 км)
Погода в Kristiansund Lufthavn (Норвегия) (70 км)
Погода в Mannen (Норвегия) (77 км)
Погода в Orsta-Volda Lufthavn (Норвегия) (79 км)
Погода в Marstein (Норвегия) (81 км)
Погода в Tafjord (Норвегия) (83 км)

Пояснения к столбцам:

Ветер - указаны скорость ветра в м/с - средняя за 10 мин, порывы в срок и между сроками (в фигурных скобках) и направление, откуда дует ветер: С - северный, СВ - северо-восточный, В - восточный, ЮВ - юго-восточный, Ю - южный, ЮЗ - юго-западный, З - западный, СЗ - северо-западный.
Видимость - горизонтальная дальность видимости в метрах или километрах. При видимости от 1 до 10 км при отсутствии осадков обычно наблюдается дымка, при ухудшении видимости до 1 км и менее - туман. В сухую погоду видимость может ухудшаться дымом, пылью или мглою.
Явления - указаны атмосферные явления, наблюдавшиеся в срок или в последний час перед сроком; фигурными скобками обозначены явления, наблюдавшиеся между сроками (за 1-3 часа до срока); квадратными скобками обозначены град или гололедные отложения с указанием их диаметра в мм.
Облачность - указаны через наклонную черту общая и нижняя облачность в баллах и высота нижней границы облаков в метрах; квадратными скобками обозначены формы облаков: Ci - перистые, Cs - перисто-слоистые, Cc - перисто-кучевые, Ac - высококучевые, As - высокослоистые, Sc - слоисто-кучевые, Ns - слоисто-дождевые, Cu - кучевые, Cb - кучево-дождевые. Подробнее классификацию облаков см. в Атласе облаков (PDF).
T - Температура воздуха - температура, измеренная на высоте 2 м над землей.
Td - Температура точки росы - температура, при понижении до которой содержащийся в воздухе водяной пар достигнет насыщения.
f - Относительная влажность воздуха - влажноcть воздуха, измеренная на высоте 2 м над землей.
Te - Эффективная температура - температура, которую ощущает одетый по сезону человек в тени. Характеристика душности погоды. При расчете учитывается влияние влажности воздуха и скорости ветра на теплоощущения человека.
Tes - Эффективная температура на солнце - температура, которую ощущает человек, с поправкой на солнечный нагрев. Характеристика знойности погоды. Зависит от высоты солнца над горизонтом, облачности и скорости ветра. Ночью, в пасмурную погоду, а также при ветре 12 м/с и более поправка равна нулю.
P - Атмосферное давление - приведенное к уровню моря атмосферное давление.
Po - Атмосферное давление - измеренное на уровне метеостанции атмосферное давление.
Tmin - Минимальная температура - минимум температуры воздуха на высоте 2 м над землей.
Tmax - Максимальная температура - максимум температуры воздуха на высоте 2 м над землей.
R - Количество осадков - Количество выпавших осадков за период времени, мм. При наведении курсора мыши на число - период времени, за который выпало указанное количество осадков.
R24 - Количество осадков - Количество выпавших осадков за 24 часа, мм.
S - Снежный покров - Высота снежного покрова, см. При наведении курсора мыши на число - состояние снежного покрова и степень покрытия местности в баллах.